STARLINK-11633, 63317

Orbit data source: Space-Track

STARLINK-11633, 63317 is a payload satellite owned by SpaceX/Seattle (US) in LEO that was launched on Tue, 18 Mar 2025 UTC via an FALCON 9 launch vehicle from the Air Force Eastern Test Range (AFETR). Payload-class satellites include a variety of spacecraft equipped with specific instruments for various scientific and technological missions. These include communications satellites like Starlink; space stations such as the ISS; scientific satellites like the Hubble; Earth observation satellites from companies like Planet Labs, Umbra, and HawkEye 360; GPS; miniature CubeSats for education and research; and military/defense satellites.

Loading next visibility...
Identifier
63317, 2025-057L
Orbit
LEO
Last TLE update
11 hours ago
Origin
Manufacturer
SpaceX/Seattle
Mission
Operational Commercial Communications
Bus & Motor
STARLINK V2M, Unknown motor
Mass
730 kg wet, ~700 kg dry
Launch date (UTC)
2025-03-18 (4 months ago)
Launch vehicle
FALCON 9
Launch site
Air Force Eastern Test Range (AFETR)
Object type
Payload
Rocket body
Debris
Shape & HBR
Box + 2 Pan, 29 m
Radar Cross Section
36.964 m², Large (>1 m²)

Expand to show TLE details & history

TLE from 11 hours ago
0 STARLINK-11633
1 63317U 25057L   25183.81760433  .00186104  00000-0  14211-2 0  9991
2 63317  42.9997 330.2818 0002012 281.0942  78.9699 15.70848021 17886
Epoch: 2025-07-02T19:37Z
TLE epoch observation values (Epoch: 2025-07-02T19:37:21.014Z)
Latitude
-0.00003°
Longitude
114.85096°
Altitude
355.984 km
Speed
7.698 km/s
True Right ascension
22h 01m 07s
True Declination
0° 00' 00"
Sunlit
Object was in full shadow at epoch
Visualization orbit readout
Latitude
42.79505°
Longitude
-167.06695°
Altitude
360.282 km
Speed
7.698 km/s
Apparent Right ascension
04h 48m 43s
Apparent Declination
3° 04' 56"
Sunlit
Object is in daylight
Visualization observer readout
Local Sidereal Time
18:25:06
Azimuth
33.064° NE
Elevation
-41.656°
Doppler factor
1
Orbital elements
Apogee altitude
359.809 km
Perigee altitude
357.098 km
Semi-major axis
6,736.591 km
Eccentricity
0.0002
Inclination
42.9997°
RAAN
330.2818°
Arg. of periapsis
281.0942°
True anomaly
Unknown
Mean anomaly
78.9699°
Eccentric anomaly
Unknown
Mean motion
3.92539 °/min
Orbital period
91.71 mins
BSTAR
0.0014211
Loading maneuver chart data...
Loading SW <> Apogee altitude chart data...
Loading historical data...
Loading historical data...
Loading historical data...
Loading historical data...
Loading historical data...
Loading historical data...
Loading historical data...

STARLINK-11633 Visibility forecast

Observer location: undefined°, undefined°

Span
Click to sort rows by Start time (UTC) header in descending order
Start Az.
Max El. time (UTC)
Max El. Az.
Max El.
End time (UTC)
End Az.
4 mins2025-07-03 14:12:23.412Z254.393° W2025-07-03 14:14:23.412Z63.602° ENE40.985°2025-07-03 14:16:23.412Z70.969° E
4 mins2025-07-03 15:48:23.412Z293.929° NW2025-07-03 15:50:23.412Z12.266° NNE33.914°2025-07-03 15:52:23.412Z68.904° E
4 mins2025-07-03 17:25:23.412Z295.251° NW2025-07-03 17:26:23.412Z350.403° N44.26°2025-07-03 17:29:23.412Z103.975° ESE
|